Date String (YYYY-MM-DD hh:mm:ss) UTC,Instrument flags,Ambient pressure (hPa),Sample flow (lpm),Bypass flow (lpm),Sample temperature (°C),Ambient temperature (°C),ASC tube jacket temperature (°C),LED temperature (°C),Box temperature (°C),Sample RH (%),Span deviation,Mass concentration (μg/m³),Mass concentration (μg/m³),Mass concentration (μg/m³)
DateTimeUTC,F1_M11,P_M11,Q1_M11,Q2_M11,T1_M11,T2_M11,T3_M11,T4_M11,T5_M11,U1_M11,ZSPAN_M11,X0_M11,X2_M11,X1_M11
2021-12-27 19:00:00,,0812.5,5.00,0.00,23.6,22.9,00.0,32.5,25.4,09.1,0000.0,0007.67,0002.15,0001.33
2021-12-27 19:01:00,,0812.5,5.00,0.00,23.6,22.9,00.0,32.5,25.4,09.1,0000.0,0007.36,0002.23,0001.34
2021-12-27 19:02:00,,0812.5,4.99,0.00,23.6,22.9,00.0,32.5,25.4,09.2,0000.0,0007.48,0002.20,0001.34
2021-12-27 19:03:00,,0812.4,5.00,0.00,23.6,22.9,00.0,32.5,25.3,09.2,0000.0,0007.71,0002.23,0001.37
2021-12-27 19:04:00,,0812.4,5.00,0.00,23.6,22.9,00.0,32.5,25.3,09.2,0000.0,0007.78,0002.32,0001.43
2021-12-27 19:05:00,,0812.4,5.00,0.00,23.6,22.9,00.0,32.5,25.4,09.2,0000.0,0007.88,0002.38,0001.46
2021-12-27 19:06:00,,0812.4,5.01,0.00,23.6,22.8,00.0,32.5,25.4,09.1,0000.0,0007.91,0002.47,0001.49
2021-12-27 19:07:00,,0812.3,4.99,0.00,23.6,22.9,00.0,32.5,25.4,09.0,0000.0,0008.00,0002.47,0001.49
2021-12-27 19:08:00,,0812.3,4.99,0.00,23.6,22.9,00.0,32.5,25.4,09.0,0000.0,0008.78,0002.51,0001.51
2021-12-27 19:09:00,,0812.3,5.00,0.00,23.6,22.9,00.0,32.5,25.4,09.0,0000.0,0009.04,0002.64,0001.52
2021-12-27 19:10:00,,0812.2,5.00,0.00,23.6,22.9,00.0,32.5,25.4,09.1,0000.0,0008.63,0002.66,0001.53
2021-12-27 19:11:00,,0812.3,5.00,0.00,23.6,22.9,00.0,32.5,25.4,09.1,0000.0,0008.01,0002.70,0001.56
2021-12-27 19:12:00,,0812.3,5.00,0.00,23.6,22.9,00.0,32.6,25.4,09.2,0000.0,0007.81,0002.63,0001.58
2021-12-27 19:13:00,,0812.3,4.99,0.00,23.6,22.9,00.0,32.6,25.4,09.2,0000.0,0007.64,0002.60,0001.59
2021-12-27 19:14:00,,0812.2,4.99,0.00,23.6,22.9,00.0,32.6,25.4,09.2,0000.0,0007.22,0002.54,0001.57
2021-12-27 19:15:00,,0812.1,5.00,0.00,23.6,22.9,00.0,32.6,25.4,09.2,0000.0,0007.65,0002.53,0001.55
2021-12-27 19:16:00,,0812.1,4.99,0.00,23.6,22.9,00.0,32.6,25.4,09.2,0000.0,0007.83,0002.52,0001.53
2021-12-27 19:17:00,,0812.1,5.01,0.00,23.6,22.9,00.0,32.6,25.4,09.2,0000.0,0008.24,0002.57,0001.54
2021-12-27 19:18:00,,0812.1,4.99,0.00,23.7,22.9,00.0,32.6,25.4,09.3,0000.0,0008.28,0002.66,0001.57
2021-12-27 19:19:00,,0812.1,5.00,0.00,23.7,22.9,00.0,32.6,25.4,09.3,0000.0,0007.66,0002.72,0001.59
2021-12-27 19:20:00,,0812.1,5.01,0.00,23.7,22.9,00.0,32.6,25.4,09.2,0000.0,0007.83,0002.72,0001.64
2021-12-27 19:21:00,,0812.1,4.99,0.00,23.7,22.9,00.0,32.6,25.4,09.3,0000.0,0008.08,0002.87,0001.70
2021-12-27 19:22:00,,0812.1,5.01,0.00,23.6,22.9,00.0,32.6,25.4,09.3,0000.0,0008.42,0003.05,0001.76
2021-12-27 19:23:00,,0812.1,5.00,0.00,23.6,22.8,00.0,32.6,25.4,09.3,0000.0,0008.87,0003.16,0001.83
2021-12-27 19:24:00,,0812.0,4.98,0.00,23.6,22.8,00.0,32.6,25.3,09.3,0000.0,0009.91,0003.22,0001.88
2021-12-27 19:25:00,,0812.0,5.01,0.00,23.6,22.8,00.0,32.6,25.3,09.3,0000.0,0010.54,0003.26,0001.92
2021-12-27 19:26:00,,0812.0,5.00,0.00,23.6,22.8,00.0,32.6,25.3,09.3,0000.0,0010.26,0003.28,0001.96
2021-12-27 19:27:00,,0812.0,5.00,0.00,23.6,22.8,00.0,32.6,25.3,09.3,0000.0,0011.16,0003.35,0002.00
2021-12-27 19:28:00,,0811.9,5.00,0.00,23.6,22.8,00.0,32.6,25.3,09.4,0000.0,0011.84,0003.33,0002.02
2021-12-27 19:29:00,,0811.8,5.01,0.00,23.6,22.8,00.0,32.6,25.3,09.3,0000.0,0011.93,0003.35,0002.04
2021-12-27 19:30:00,,0811.9,4.98,0.00,23.6,22.8,00.0,32.5,25.3,09.3,0000.0,0012.01,0003.40,0002.07
2021-12-27 19:31:00,,0811.8,5.02,0.00,23.6,22.8,00.0,32.5,25.3,09.3,0000.0,0012.05,0003.43,0002.10
2021-12-27 19:32:00,,0811.8,5.00,0.00,23.6,22.8,00.0,32.5,25.3,09.3,0000.0,0012.58,0003.39,0002.10
2021-12-27 19:33:00,,0811.7,4.99,0.00,23.6,22.8,00.0,32.5,25.3,09.3,0000.0,0013.29,0003.37,0002.09
2021-12-27 19:34:00,,0811.7,5.00,0.00,23.6,22.8,00.0,32.5,25.3,09.4,0000.0,0013.33,0003.39,0002.07
2021-12-27 19:35:00,,0811.6,4.99,0.00,23.6,22.8,00.0,32.5,25.3,09.4,0000.0,0013.22,0003.45,0002.08
2021-12-27 19:36:00,,0811.6,5.00,0.00,23.6,22.9,00.0,32.5,25.3,09.4,0000.0,0013.52,0003.50,0002.10
2021-12-27 19:37:00,,0811.6,5.00,0.00,23.6,22.9,00.0,32.5,25.4,09.3,0000.0,0014.56,0003.57,0002.10
2021-12-27 19:38:00,,0811.6,5.00,0.00,23.6,22.9,00.0,32.5,25.4,09.3,0000.0,0014.40,0003.59,0002.12
2021-12-27 19:39:00,,0811.5,5.00,0.00,23.6,22.9,00.0,32.5,25.4,09.3,0000.0,0013.66,0003.68,0002.14
2021-12-27 19:40:00,,0811.5,5.00,0.00,23.6,22.9,00.0,32.5,25.4,09.3,0000.0,0013.72,0003.70,0002.15
2021-12-27 19:41:00,,0811.6,5.01,0.00,23.7,22.9,00.0,32.6,25.5,09.3,0000.0,0014.50,0003.77,0002.16
2021-12-27 19:42:00,,0811.6,4.99,0.00,23.7,22.9,00.0,32.6,25.5,09.2,0000.0,0015.59,0003.83,0002.16
2021-12-27 19:43:00,,0811.4,5.00,0.00,23.7,22.9,00.0,32.6,25.5,09.2,0000.0,0015.36,0003.86,0002.16
2021-12-27 19:44:00,,0811.4,4.99,0.00,23.7,23.0,00.0,32.6,25.5,09.2,0000.0,0014.69,0003.84,0002.15
2021-12-27 19:45:00,,0811.4,5.01,0.00,23.7,23.0,00.0,32.6,25.5,09.2,0000.0,0015.48,0003.79,0002.13
2021-12-27 19:46:00,,0811.3,5.00,0.00,23.7,23.0,00.0,32.6,25.5,09.2,0000.0,0015.62,0003.76,0002.11
2021-12-27 19:47:00,,0811.3,4.99,0.00,23.7,23.0,00.0,32.6,25.5,09.2,0000.0,0015.70,0003.76,0002.08
2021-12-27 19:48:00,,0811.3,4.99,0.00,23.7,23.0,00.0,32.6,25.5,09.2,0000.0,0015.89,0003.74,0002.08
2021-12-27 19:49:00,,0811.3,5.00,0.00,23.7,23.0,00.0,32.6,25.5,09.2,0000.0,0016.38,0003.70,0002.06
2021-12-27 19:50:00,,0811.3,5.01,0.00,23.7,23.0,00.0,32.6,25.5,09.1,0000.0,0016.44,0003.67,0002.04
2021-12-27 19:51:00,,0811.3,5.00,0.00,23.7,23.0,00.0,32.6,25.5,09.2,0000.0,0016.87,0003.64,0002.05
2021-12-27 19:52:00,,0811.2,4.99,0.00,23.7,23.0,00.0,32.6,25.5,09.2,0000.0,0016.60,0003.59,0002.03
2021-12-27 19:53:00,,0811.2,5.00,0.00,23.8,23.0,00.0,32.6,25.5,09.1,0000.0,0016.40,0003.56,0002.00
2021-12-27 19:54:00,,0811.2,4.99,0.00,23.8,23.1,00.0,32.6,25.5,09.1,0000.0,0016.24,0003.57,0002.00
2021-12-27 19:55:00,,0811.2,5.00,0.00,23.8,23.1,00.0,32.6,25.5,09.1,0000.0,0017.88,0003.55,0002.01
2021-12-27 19:56:00,,0811.2,5.01,0.00,23.8,23.1,00.0,32.7,25.5,09.1,0000.0,0017.64,0003.55,0002.00
2021-12-27 19:57:00,,0811.1,5.00,0.00,23.8,23.1,00.0,32.7,25.6,09.1,0000.0,0017.94,0003.53,0001.99
2021-12-27 19:58:00,,0811.1,5.00,0.00,23.8,23.1,00.0,32.7,25.6,09.0,0000.0,0017.51,0003.52,0001.98
2021-12-27 19:59:00,,0811.0,5.02,0.00,23.8,23.1,00.0,32.7,25.6,09.0,0000.0,0016.44,0003.49,0001.97
